Location: Newark
(46.3567°N, 6.1428°E)
Time: 08:40:49
(UTC+00:00)

DX 1 - Visible Passes

Search period start: 22 September 2019 00:00
Search period end: 02 October 2019 00:00
Orbit: 620 x 630 km, 98.4° (Epoch: 22 September)

Date Brightness Start Highest point End Pass type
(mag) Time Alt. Az. Time Alt. Az. Time Alt. Az.
22 Sep ? 01:52:08 10° E 01:54:56 17° ENE 01:57:44 10° NNE visible
22 Sep ? 03:28:09 24° S 03:30:38 59° WSW 03:34:59 10° NNW visible
23 Sep ? 02:10:10 10° ESE 02:13:35 24° ENE 02:17:07 10° N visible
23 Sep ? 03:47:26 23° SSW 03:49:33 38° W 03:53:40 10° NNW visible
24 Sep ? 02:29:27 17° SE 02:32:18 35° ENE 02:36:18 10° N visible
24 Sep ? 04:06:44 19° SW 04:08:31 25° W 04:12:10 10° NW visible
25 Sep ? 02:48:45 25° SE 02:51:04 53° ENE 02:55:21 10° N visible
25 Sep ? 04:26:03 14° WSW 04:27:32 17° W 04:30:23 10° NW visible
26 Sep ? 01:33:20 10° ENE 01:34:27 11° ENE 01:35:34 10° NE visible
26 Sep ? 03:08:05 36° SSE 03:09:51 83° ENE 03:14:16 10° NNW visible
26 Sep ? 04:45:31 10° WSW 04:46:36 11° W 04:47:41 10° WNW visible
26 Sep ? 18:05:49 10° NW 18:06:36 10° NW 18:07:22 10° WNW visible
27 Sep ? 01:50:26 10° E 01:53:03 16° ENE 01:55:41 10° NNE visible
27 Sep ? 03:27:25 42° SSW 03:28:43 64° WSW 03:33:06 10° NNW visible
28 Sep ? 02:09:28 16° ESE 02:11:43 23° ENE 02:15:08 10° NNE visible
28 Sep ? 03:46:45 37° SW 03:47:37 41° W 03:51:48 10° NNW visible
29 Sep ? 02:28:48 25° ESE 02:30:25 33° ENE 02:34:21 10° N visible
29 Sep ? 04:06:06 26° WSW 04:06:35 27° W 04:10:20 10° NW visible
30 Sep ? 02:48:10 41° ESE 02:49:09 49° ENE 02:53:24 10° N visible
30 Sep ? 04:25:28 18° W 04:25:35 18° W 04:28:37 10° NW visible
30 Sep ? 17:43:25 10° NNW 17:46:08 16° WNW 17:48:49 10° W visible
01 Oct ? 01:32:08 10° ENE 01:32:35 10° NE 01:33:01 10° NE visible
01 Oct ? 03:07:33 69° SE 03:07:57 77° ENE 03:12:21 10° N visible
01 Oct ? 04:44:50 12° W 04:44:50 12° W 04:46:15 10° WNW visible
01 Oct ? 18:03:26 10° NW 18:04:44 11° WNW 18:06:01 10° WNW visible
